GW4041 Weather Reports


time (UTC)temp
C
wind
direction
speed
KPH
gust
KPH
rain 1hr
cm
rain 24hr
cm
rain mn
cm
humidity
%
barometer
mb
20260510204802 21 349 0.0 3.2 0.00 0.00 0.00 65 1012.7
20260510204258 21 346 1.6 3.2 0.00 0.00 0.00 64 1012.9
20260510203755 21 347 3.2 8.0 0.00 0.00 0.00 61 1012.7
20260510203253 22 323 1.6 3.2 0.00 0.00 0.00 62 1012.7
20260510202752 22 353 1.6 1.6 0.00 0.00 0.00 61 1012.4
20260510202249 22 331 3.2 4.8 0.00 0.00 0.00 59 1012.6
20260510201746 22 28 1.6 3.2 0.00 0.00 0.00 59 1012.4
20260510201242 23 282 3.2 4.8 0.00 0.00 0.00 60 1012.3
20260510200739 23 8 3.2 4.8 0.00 0.00 0.00 58 1012.4
20260510200237 23 49 4.8 4.8 0.00 0.00 0.00 57 1012.4
20260510195733 23 214 1.6 3.2 0.00 0.00 0.00 56 1012.6
20260510195230 24 310 3.2 4.8 0.00 0.00 0.00 60 1012.2
20260510194729 23 34 0.0 3.2 0.00 0.00 0.00 60 1012.5
20260510194226 24 294 1.6 8.0 0.00 0.00 0.00 58 1012.5
20260510193722 23 30 1.6 3.2 0.00 0.00 0.00 59 1012.7
20260510193217 23 17 3.2 4.8 0.00 0.00 0.00 60 1012.4
20260510192712 23 353 3.2 4.8 0.00 0.00 0.00 59 1012.6
20260510192208 24 351 3.2 3.2 0.00 0.00 0.00 58 1012.6
20260510191704 23 325 0.0 3.2 0.00 0.00 0.00 60 1012.6
20260510191201 23 328 1.6 9.7 0.00 0.00 0.00 60 1012.7
20260510190658 23 274 1.6 3.2 0.00 0.00 0.00 59 1012.5
20260510190156 23 30 1.6 4.8 0.00 0.00 0.00 61 1012.5
20260510185652 24 309 4.8 8.0 0.00 0.00 0.00 60 1012.8
20260510185150 25 230 3.2 3.2 0.00 0.00 0.00 60 1012.7
20260510184646 24 339 1.6 3.2 0.00 0.00 0.00 59 1012.8
20260510184143 23 294 1.6 4.8 0.00 0.00 0.00 61 1012.9
20260510183638 23 341 1.6 4.8 0.00 0.00 0.00 57 1012.9
20260510183133 24 305 0.0 3.2 0.00 0.00 0.00 57 1012.5
20260510182630 23 259 3.2 4.8 0.00 0.00 0.00 60 1012.8
20260510182126 24 315 3.2 8.0 0.00 0.00 0.00 57 1013.1
20260510181623 25 254 4.8 4.8 0.00 0.00 0.00 55 1012.7
20260510181120 24 43 3.2 4.8 0.00 0.00 0.00 55 1012.7
20260510180616 23 273 3.2 4.8 0.00 0.00 0.00 58 1012.8
20260510180114 23 11 4.8 8.0 0.00 0.00 0.00 59 1012.8
20260510175609 23 357 4.8 9.7 0.00 0.00 0.00 60 1012.9
20260510175105 23 61 1.6 11.3 0.00 0.00 0.00 60 1012.7
20260510174603 23 299 3.2 3.2 0.00 0.00 0.00 58 1012.8
20260510174100 23 321 4.8 9.7 0.00 0.00 0.00 57 1012.7
20260510173555 24 339 1.6 3.2 0.00 0.00 0.00 57 1012.8
20260510173052 25 69 1.6 3.2 0.00 0.00 0.00 58 1012.6
20260510172548 24 359 3.2 4.8 0.00 0.00 0.00 59 1012.7
20260510172044 24 305 3.2 4.8 0.00 0.00 0.00 61 1012.6
20260510171541 23 7 1.6 3.2 0.00 0.00 0.00 62 1012.5
20260510171038 24 1 1.6 3.2 0.00 0.00 0.00 60 1012.4
20260510170534 24 11 1.6 3.2 0.00 0.00 0.00 65 1012.4
20260510170031 23 31 3.2 3.2 0.00 0.00 0.00 65 1012.7
20260510165526 24 13 0.0 4.8 0.00 0.00 0.00 65 1012.7
20260510165018 24 261 1.6 4.8 0.00 0.00 0.00 64 1012.5
20260510164515 23 251 1.6 4.8 0.00 0.00 0.00 65 1012.9
20260510164011 23 7 4.8 9.7 0.00 0.00 0.00 65 1012.8
20260510163506 23 81 4.8 4.8 0.00 0.00 0.00 64 1012.7
20260510163003 23 330 0.0 1.6 0.00 0.00 0.00 67 1012.8
20260510162458 22 299 1.6 4.8 0.00 0.00 0.00 68 1012.9
20260510161955 22 5 6.4 9.7 0.00 0.00 0.00 68 1012.9
20260510161450 22 298 3.2 4.8 0.00 0.00 0.00 69 1012.9
20260510160947 22 229 4.8 9.7 0.00 0.00 0.00 68 1012.9
20260510160444 21 205 3.2 4.8 0.00 0.00 0.00 68 1012.7
20260510155942 22 34 1.6 1.6 0.00 0.00 0.00 68 1012.9
20260510155435 21 36 3.2 4.8 0.00 0.00 0.00 70 1013.0
20260510154931 21 317 4.8 8.0 0.00 0.00 0.00 71 1013.1
20260510154427 21 162 4.8 8.0 0.00 0.00 0.00 70 1013.1
20260510153925 21 327 1.6 3.2 0.00 0.00 0.00 71 1013.0
20260510153422 20 346 1.6 4.8 0.00 0.00 0.00 75 1013.2
20260510152919 20 106 0.0 3.2 0.00 0.00 0.00 77 1013.1
20260510152416 19 91 1.6 4.8 0.00 0.00 0.00 81 1013.1
20260510151912 18 99 3.2 4.8 0.00 0.00 0.00 82 1013.3
20260510151410 18 74 0.0 4.8 0.00 0.00 0.00 83 1013.3
20260510150906 18 212 4.8 4.8 0.00 0.00 0.00 84 1013.2
20260510150402 18 124 1.6 3.2 0.00 0.00 0.00 84 1013.1
20260510145858 18 79 1.6 3.2 0.00 0.00 0.00 83 1013.1
20260510145355 18 22 1.6 3.2 0.00 0.00 0.00 85 1013.2
20260510144852 17 111 4.8 4.8 0.00 0.00 0.00 86 1013.1
20260510144349 17 92 3.2 8.0 0.00 0.00 0.00 85 1013.2
20260510143849 17 124 3.2 4.8 0.00 0.00 0.00 86 1012.9
20260510143345 17 150 3.2 4.8 0.00 0.00 0.00 86 1013.1
20260510142842 16 111 4.8 8.0 0.00 0.00 0.00 88 1013.2
20260510142338 16 45 0.0 3.2 0.00 0.00 0.00 89 1013.5
20260510141835 16 4 1.6 3.2 0.00 0.00 0.00 90 1013.3
20260510141333 15 76 0.0 4.8 0.00 0.00 0.00 91 1013.1
20260510140830 15 100 1.6 3.2 0.00 0.00 0.00 93 1013.2
20260510140326 14 113 4.8 4.8 0.00 0.00 0.00 96 1013.0
20260510135819 13 70 1.6 3.2 0.00 0.00 0.00 99 1013.0
20260510135315 13 97 3.2 4.8 0.00 0.00 0.00 99 1012.9
20260510134813 13 34 0.0 0.0 0.00 0.00 0.00 99 1013.0
20260510134310 13 342 1.6 1.6 0.00 0.00 0.00 99 1013.0
20260510133806 13 0 0.0 1.6 0.00 0.00 0.00 99 1012.8
20260510133303 12 125 1.6 3.2 0.00 0.00 0.00 99 1013.0
20260510132758 12 111 1.6 3.2 0.00 0.00 0.00 99 1013.1
20260510132257 12 344 1.6 3.2 0.00 0.00 0.00 99 1013.2
20260510131753 12 13 1.6 3.2 0.00 0.00 0.00 99 1013.3
20260510131250 12 196 0.0 1.6 0.00 0.00 0.00 99 1013.3
20260510130746 11 239 0.0 1.6 0.00 0.00 0.00 99 1013.3
20260510130243 11 6 0.0 1.6 0.00 0.00 0.00 99 1013.2
20260510125740 11 346 0.0 1.6 0.00 0.00 0.00 99 1013.3
20260510125236 11 4 0.0 1.6 0.00 0.00 0.00 99 1013.2
20260510124733 11 338 0.0 1.6 0.00 0.00 0.00 99 1013.2
20260510124231 11 347 0.0 1.6 0.00 0.00 0.00 99 1013.1
20260510123726 11 238 0.0 3.2 0.00 0.00 0.00 99 1012.9
20260510123222 11 136 1.6 3.2 0.00 0.00 0.00 99 1012.8
20260510122718 10 127 0.0 8.0 0.00 0.00 0.00 99 1012.8
20260510122215 10 114 3.2 4.8 0.00 0.00 0.00 99 1012.7
20260510121711 11 93 3.2 4.8 0.00 0.00 0.00 99 1012.7
20260510121209 10 71 1.6 3.2 0.00 0.00 0.00 99 1012.6
20260510120705 10 91 0.0 3.2 0.00 0.00 0.00 99 1012.5
20260510120202 10 14 0.0 3.2 0.00 0.00 0.00 99 1012.6
20260510115657 10 172 3.2 8.0 0.00 0.00 0.00 99 1012.5
20260510115156 10 4 0.0 1.6 0.00 0.00 0.00 99 1012.5
20260510114645 10 182 1.6 3.2 0.00 0.00 0.00 99 1012.4
20260510114142 10 346 1.6 3.2 0.00 0.00 0.00 99 1012.5
20260510113637 10 36 0.0 0.0 0.00 0.00 0.00 99 1012.5
20260510113134 10 8 0.0 0.0 0.00 0.00 0.00 99 1012.3
20260510112631 10 352 0.0 0.0 0.00 0.00 0.00 99 1012.5
20260510112127 10 351 0.0 1.6 0.00 0.00 0.00 99 1012.6
20260510111624 10 351 0.0 1.6 0.00 0.00 0.00 99 1012.5
20260510111120 10 11 0.0 0.0 0.00 0.00 0.00 99 1012.3
20260510110615 10 330 0.0 0.0 0.00 0.00 0.00 99 1012.3
20260510110113 10 186 0.0 1.6 0.00 0.00 0.00 99 1012.6
20260510105608 10 308 0.0 1.6 0.00 0.00 0.00 99 1012.5
20260510105102 10 347 0.0 0.0 0.00 0.00 0.00 99 1012.1
20260510104600 10 5 0.0 0.0 0.00 0.00 0.00 99 1012.0
20260510104056 10 13 0.0 0.0 0.00 0.00 0.00 99 1012.2
20260510103553 10 325 0.0 0.0 0.00 0.00 0.00 99 1012.0
20260510103049 10 333 0.0 0.0 0.00 0.00 0.00 99 1011.7
20260510102545 10 52 0.0 0.0 0.00 0.00 0.00 99 1011.6
20260510102041 10 333 0.0 0.0 0.00 0.00 0.00 99 1011.7
20260510101539 10 289 0.0 0.0 0.00 0.00 0.00 99 1011.9
20260510101038 10 325 0.0 0.0 0.00 0.00 0.00 99 1011.8
20260510100533 10 344 0.0 0.0 0.00 0.00 0.00 99 1011.7
20260510100031 10 320 0.0 0.0 0.00 0.00 0.00 99 1011.8
20260510095526 10 331 0.0 0.0 0.00 0.00 0.00 99 1012.0
20260510095025 10 40 0.0 0.0 0.00 0.00 0.00 99 1011.7
20260510094520 10 51 0.0 0.0 0.00 0.00 0.00 99 1011.7
20260510094016 10 319 0.0 0.0 0.00 0.00 0.00 99 1011.7
20260510093512 10 353 0.0 3.2 0.00 0.00 0.00 99 1011.7
20260510093009 10 356 0.0 1.6 0.00 0.00 0.00 99 1011.6
20260510092506 10 320 1.6 1.6 0.00 0.00 0.00 99 1011.7
20260510092005 10 322 1.6 1.6 0.00 0.00 0.00 99 1011.6
20260510091503 10 336 0.0 1.6 0.00 0.00 0.00 99 1011.7
20260510090959 10 323 0.0 0.0 0.00 0.00 0.00 99 1011.9
20260510090456 10 341 1.6 1.6 0.00 0.00 0.00 99 1011.9
20260510085951 10 336 0.0 1.6 0.00 0.00 0.00 99 1011.8
20260510085447 10 337 1.6 3.2 0.00 0.00 0.00 99 1011.5
20260510084942 10 354 0.0 1.6 0.00 0.00 0.00 99 1011.9
20260510084440 10 351 0.0 1.6 0.00 0.00 0.00 99 1011.5
20260510083936 9 326 3.2 4.8 0.00 0.00 0.00 99 1011.8
20260510083433 9 338 0.0 3.2 0.00 0.00 0.00 99 1011.6
20260510082928 9 335 0.0 1.6 0.00 0.00 0.00 99 1011.8
20260510082426 8 348 1.6 3.2 0.00 0.00 0.00 99 1011.8
20260510081925 8 344 0.0 0.0 0.00 0.00 0.00 99 1011.3
20260510081421 9 351 0.0 0.0 0.00 0.00 0.00 99 1011.2
20260510080918 9 2 0.0 0.0 0.00 0.00 0.00 99 1011.3
20260510080416 9 332 0.0 0.0 0.00 0.00 0.00 99 1011.3
20260510075914 9 7 0.0 0.0 0.00 0.00 0.00 99 1011.3
20260510075412 9 349 0.0 0.0 0.00 0.00 0.00 99 1011.2
20260510074908 9 350 0.0 0.0 0.00 0.00 0.00 99 1011.1
20260510074405 9 23 0.0 0.0 0.00 0.00 0.00 99 1011.0
20260510073902 9 334 0.0 0.0 0.00 0.00 0.00 99 1011.1
20260510073357 9 341 0.0 0.0 0.00 0.00 0.00 99 1011.1
20260510072853 9 346 0.0 0.0 0.00 0.00 0.00 99 1011.1
20260510072350 9 328 0.0 0.0 0.00 0.00 0.00 99 1011.1
20260510071846 9 342 0.0 0.0 0.00 0.00 0.00 99 1010.7
20260510071343 9 319 0.0 0.0 0.00 0.00 0.00 99 1011.1
20260510070842 9 322 0.0 0.0 0.00 0.00 0.00 99 1011.1
20260510070339 9 339 0.0 0.0 0.00 0.00 0.00 99 1011.1
20260510065838 8 321 0.0 1.6 0.00 0.00 0.00 99 1011.1
20260510065335 8 311 1.6 1.6 0.00 0.00 0.00 99 1010.8
20260510064832 8 326 0.0 1.6 0.00 0.00 0.00 99 1011.0
20260510064330 8 315 1.6 3.2 0.00 0.00 0.00 99 1010.9
20260510063826 8 313 1.6 1.6 0.00 0.00 0.00 99 1010.8
20260510063323 9 321 0.0 0.0 0.00 0.00 0.00 99 1010.6
20260510062819 9 321 0.0 0.0 0.00 0.00 0.00 99 1010.5
20260510062315 9 324 0.0 0.0 0.00 0.00 0.00 99 1010.8
20260510061810 9 326 0.0 0.0 0.00 0.00 0.00 99 1010.7
20260510061308 9 326 0.0 0.0 0.00 0.00 0.00 99 1010.7
20260510060804 9 332 0.0 0.0 0.00 0.00 0.00 99 1010.5
20260510060301 9 332 0.0 0.0 0.00 0.00 0.00 99 1010.9
20260510055758 10 332 0.0 0.0 0.00 0.00 0.00 99 1010.8
20260510055256 10 332 0.0 0.0 0.00 0.00 0.00 99 1010.8
20260510054755 10 342 0.0 0.0 0.00 0.00 0.00 99 1010.8
20260510054252 10 342 0.0 0.0 0.00 0.00 0.00 99 1010.9
20260510053751 9 335 0.0 0.0 0.00 0.00 0.00 99 1010.8
20260510053247 9 334 0.0 0.0 0.00 0.00 0.00 99 1011.0
20260510052744 9 334 0.0 0.0 0.00 0.00 0.00 99 1011.1
20260510052240 9 334 0.0 0.0 0.00 0.00 0.00 99 1011.1
20260510051736 9 334 0.0 0.0 0.00 0.00 0.00 99 1011.2
20260510051233 9 334 0.0 0.0 0.00 0.00 0.00 99 1011.1
20260510050729 9 337 0.0 0.0 0.00 0.00 0.00 99 1011.1
20260510050227 9 324 0.0 0.0 0.00 0.00 0.00 99 1011.3
20260510045723 9 333 0.0 0.0 0.00 0.00 0.00 99 1011.1
20260510045220 8 333 0.0 0.0 0.00 0.00 0.00 99 1010.9
20260510044716 8 331 0.0 0.0 0.00 0.00 0.00 99 1011.1
20260510044215 8 332 0.0 0.0 0.00 0.00 0.00 99 1011.4
20260510043709 8 341 0.0 0.0 0.00 0.00 0.00 99 1011.0
20260510043206 8 327 0.0 0.0 0.00 0.00 0.00 99 1011.2
20260510042704 8 332 0.0 0.0 0.00 0.00 0.00 99 1011.2
20260510042200 8 324 0.0 0.0 0.00 0.00 0.00 99 1011.1
20260510041657 8 335 0.0 0.0 0.00 0.00 0.00 99 1011.2
20260510041154 8 342 0.0 0.0 0.00 0.00 0.00 99 1011.0
20260510040651 8 336 0.0 0.0 0.00 0.00 0.00 99 1011.2
20260510040148 8 337 0.0 0.0 0.00 0.00 0.00 99 1011.1
20260510035643 8 328 0.0 0.0 0.00 0.03 0.03 99 1011.3
20260510035138 8 328 0.0 0.0 0.00 0.03 0.03 99 1011.1
20260510034635 8 328 0.0 0.0 0.00 0.03 0.03 99 1011.1
20260510034132 8 330 0.0 0.0 0.00 0.03 0.03 99 1011.0
20260510033629 8 337 0.0 0.0 0.00 0.03 0.03 99 1011.0
20260510033127 8 339 0.0 0.0 0.00 0.03 0.03 99 1010.9
20260510032623 8 330 0.0 0.0 0.00 0.03 0.03 99 1011.0
20260510032118 8 332 0.0 0.0 0.00 0.03 0.03 99 1010.9
20260510031613 8 327 0.0 0.0 0.00 0.03 0.03 99 1011.0
20260510031110 8 336 0.0 0.0 0.00 0.03 0.03 99 1010.8
20260510030605 8 337 0.0 0.0 0.00 0.03 0.03 99 1010.9
20260510030103 8 337 0.0 0.0 0.00 0.03 0.03 99 1010.9
20260510025600 8 328 0.0 0.0 0.00 0.03 0.03 99 1010.9
20260510025057 8 338 0.0 0.0 0.00 0.03 0.03 99 1010.7
20260510024554 8 329 0.0 0.0 0.00 0.03 0.03 99 1010.7
20260510024050 8 328 0.0 0.0 0.00 0.03 0.03 99 1010.7
20260510023546 8 329 0.0 0.0 0.00 0.03 0.03 99 1010.8
20260510023044 8 340 0.0 0.0 0.00 0.03 0.03 99 1010.7
20260510022543 8 334 0.0 0.0 0.00 0.03 0.03 99 1010.6
20260510022037 8 320 0.0 0.0 0.00 0.03 0.03 99 1010.8
20260510021534 8 338 0.0 0.0 0.00 0.03 0.03 99 1010.9
20260510021033 8 331 0.0 0.0 0.00 0.03 0.03 99 1010.9
20260510020532 8 332 0.0 0.0 0.00 0.03 0.03 99 1010.6
20260510020028 9 332 0.0 0.0 0.00 0.03 0.03 99 1011.0
20260510015524 9 326 0.0 0.0 0.00 0.03 0.03 99 1010.7
20260510015020 9 341 0.0 0.0 0.00 0.03 0.03 99 1010.6
20260510014517 9 329 0.0 0.0 0.00 0.03 0.03 99 1010.9
20260510014014 9 321 0.0 0.0 0.00 0.03 0.03 99 1011.0
20260510013508 9 318 0.0 0.0 0.00 0.03 0.03 99 1010.7
20260510013004 9 337 0.0 0.0 0.00 0.03 0.03 99 1010.9
20260510012459 10 338 0.0 0.0 0.00 0.03 0.03 99 1010.7
20260510011954 10 334 0.0 0.0 0.00 0.03 0.03 99 1010.7
20260510011449 10 338 0.0 0.0 0.00 0.03 0.03 99 1010.9
20260510010945 10 330 0.0 0.0 0.00 0.03 0.03 99 1010.6
20260510010443 10 337 0.0 0.0 0.00 0.03 0.03 99 1010.4
20260510005940 10 338 0.0 0.0 0.00 0.03 0.03 99 1010.4
20260510005435 10 337 0.0 0.0 0.00 0.03 0.03 99 1010.5
20260510004933 10 337 0.0 0.0 0.00 0.03 0.03 99 1010.4
20260510004430 10 337 0.0 0.0 0.00 0.03 0.03 99 1010.3
20260510003928 10 340 0.0 0.0 0.00 0.03 0.03 99 1010.0
20260510003425 10 337 0.0 0.0 0.00 0.03 0.03 99 1010.2
20260510002924 10 341 0.0 0.0 0.00 0.03 0.03 99 1010.2
20260510002421 10 342 0.0 0.0 0.00 0.03 0.03 99 1010.1
20260510001918 11 326 0.0 0.0 0.00 0.03 0.03 99 1010.1
20260510001415 11 338 0.0 0.0 0.00 0.03 0.03 99 1010.1
20260510000912 11 337 0.0 0.0 0.00 0.03 0.03 99 1009.9
20260510000411 11 337 0.0 0.0 0.00 0.03 0.03 99 1010.2
20260509235905 11 337 0.0 0.0 0.00 0.03 0.03 99 1009.8
20260509235402 11 338 0.0 0.0 0.00 0.03 0.03 99 1010.0
20260509234858 11 325 0.0 0.0 0.00 0.03 0.03 99 1010.0
20260509234356 11 324 0.0 0.0 0.00 0.03 0.03 99 1010.0
20260509233853 12 316 0.0 0.0 0.00 0.03 0.03 99 1009.8
20260509233351 12 316 0.0 0.0 0.00 0.03 0.03 98 1010.0
20260509232846 12 321 0.0 0.0 0.00 0.03 0.03 98 1009.9
20260509232344 12 315 0.0 0.0 0.00 0.03 0.03 98 1010.1
20260509231840 12 296 0.0 0.0 0.00 0.03 0.03 97 1009.9
20260509231337 12 328 0.0 0.0 0.00 0.03 0.03 96 1009.8
20260509230835 12 322 0.0 0.0 0.00 0.03 0.03 96 1009.8
20260509230332 12 324 0.0 0.0 0.00 0.03 0.03 95 1009.9
20260509225827 12 56 0.0 0.0 0.00 0.03 0.03 95 1010.0
20260509225324 12 115 1.6 3.2 0.00 0.03 0.03 95 1010.0
20260509224820 12 55 0.0 3.2 0.00 0.03 0.03 96 1010.1
20260509224316 12 20 0.0 0.0 0.00 0.03 0.03 96 1010.3
20260509223813 12 327 0.0 0.0 0.00 0.03 0.03 96 1010.1
20260509223310 12 353 1.6 3.2 0.00 0.03 0.03 96 1010.1
20260509222807 12 29 1.6 4.8 0.00 0.03 0.03 96 1010.1
20260509222306 12 26 0.0 3.2 0.00 0.03 0.03 96 1009.9
20260509221758 12 88 1.6 3.2 0.00 0.03 0.03 96 1009.8
20260509221255 12 83 1.6 3.2 0.00 0.03 0.03 96 1010.0
20260509220750 12 129 0.0 1.6 0.00 0.03 0.03 96 1010.1
20260509220247 12 76 1.6 4.8 0.00 0.03 0.03 95 1010.3
20260509215742 12 152 3.2 4.8 0.00 0.03 0.03 95 1010.2
20260509215239 12 96 3.2 3.2 0.00 0.03 0.03 95 1010.3
20260509214736 12 40 0.0 0.0 0.00 0.03 0.03 96 1010.4
20260509214234 12 86 0.0 0.0 0.00 0.03 0.03 96 1010.4
20260509213731 12 12 0.0 0.0 0.18 0.03 0.03 97 1010.4
20260509213226 12 153 0.0 1.6 0.18 0.03 0.03 97 1010.6
20260509212724 12 27 1.6 1.6 0.00 0.00 0.00 96 1010.7
20260509212221 12 224 0.0 0.0 0.00 0.00 0.00 95 1010.4
20260509211716 12 0 0.0 0.0 0.00 0.00 0.00 94 1010.6
20260509211208 12 68 1.6 1.6 0.00 0.00 0.00 94 1010.4
20260509210704 12 332 0.0 0.0 0.00 0.00 0.00 93 1010.5
20260509210201 12 333 0.0 0.0 0.00 0.00 0.00 92 1010.4
20260509205701 12 2 0.0 0.0 0.00 0.00 0.00 91 1010.6